Weather in Aleksandrovka

Russia / Orenburg Oblast     53°04′44″N   53°19′49″E
temp.,
°C
wind,
m/s
gust,
m/s
humid.,
%
clouds,
%
prec.,
mm/h
press.,
hPa
HPBL,
m
7 march, sun
sun723:00−10n2392100 0.0 101442
02:00−11nne3392100 0.0 101254
05:00−12nne3488100 0.0 101295
08:00−15n2382100 0.0 101222
11:00−13nw238450 0.0 1013107
14:00−10wnw35840 0.0 1013271
17:00−9wsw239512 0.0 1013225
20:00−12sw369392 0.1 1013134
8 march, mon
mon823:00−14ssw389792 0.1 1013149
02:00−13s41196100 0.0 1010307
05:00−9ssw71695100 0.7 1007650
08:00−7ssw81793100 0.7 1004882
11:00−5sw111894100 1.8 10031116
14:00−3sw101589100 0.8 10041204
17:00−2wsw81481100 1.2 10061228
20:00−4sw41192100 0.2 1007345
9 march, tue
tue923:00−3ssw51196100 1.1 1007615
02:00−3ssw61296100 0.8 1006630
05:00−3sw71296100 1.9 1004667
08:00−4wsw51196100 1.1 1005641
11:00−7w599399 1.2 1007497
14:00−6w358599 0.0 1009511
17:00−7wnw1291100 0.0 100930
20:00−10n3593100 0.0 1008101
10 march, wed
wed1023:00−10nnw2495100 0.0 100987
02:00−12nw3496100 0.0 100886
05:00−16nw349782 0.0 101060
08:00−18nw339786 0.0 101155
11:00−16nw469493 0.0 1012264
14:00−14nw469298 0.0 1014355
17:00−14wnw579099 0.1 1015537
20:00−18wnw479799 0.0 1016114
11 march, thu
thu1123:00−19nw479697 0.1 1018188
02:00−22nw339894 0.1 101976
05:00−24nw239892 0.1 102139
08:00−27nw239881 0.0 102325
11:00−24wnw249442 0.0 1025155
14:00−21w35920 0.0 1025268
17:00−18wsw479111 0.0 1025433
20:00−22wsw479666 0.0 102697